Location: Lake Sonoma
(38.7200°N, 123.0564°W)
Time: 20:21:24
(UTC-07:00)

Amateur Radio Satellites - All Passes

Search period start: 17 April 2015 19:51
Search period end: 18 April 2015 19:51
Location: Lake Sonoma, 38.7200°N, 123.0564°W

Satellite Date Start Highest point End Downlink Frequencies (MHz)
Time Altitude Azimuth
VERMONT LUNAR 17 Apr 19:53:31 19:55:50 18° 148° (SSE) 19:58:13 437.305
HO-68 17 Apr 20:03:56 20:10:05 33° 64° (ENE) 20:16:24 435.675
CUSAT 1 17 Apr 20:06:24 20:07:36 11° 297° (WNW) 20:08:43 437.405
COMPASS 1 17 Apr 20:11:51 20:13:04 11° 65° (ENE) 20:14:31 437.405
CANX-2 17 Apr 20:14:29 20:17:35 20° 69° (ENE) 20:20:49 2200.000
PRISM 17 Apr 20:17:09 20:21:12 58° 286° (WNW) 20:25:12 437.425
SEEDS 17 Apr 20:21:29 20:24:20 18° 68° (ENE) 20:27:21 437.485
GONETS M04 17 Apr 20:21:53 20:27:12 16° 300° (WNW) 20:32:01
CUTE 1.7 + AOD 2 17 Apr 20:24:43 20:28:05 24° 70° (ENE) 20:31:34 437.475
AUBIESAT-1 17 Apr 20:28:41 20:32:14 23° 297° (WNW) 20:35:30 437.475
STRAND 1 17 Apr 20:29:39 20:34:45 73° 285° (WNW) 20:39:49 437.568
PHONESAT 2.4 17 Apr 20:32:43 20:34:35 14° 146° (SE) 20:36:33 2401.200-2431.200
BRITE-PL 17 Apr 20:43:59 20:48:10 83° 74° (ENE) 20:52:20 437.365/2234.400
CUBESAT XI-V 17 Apr 20:44:36 20:48:11 22° 291° (WNW) 20:51:39 437.345
ISS 17 Apr 20:45:16 20:47:20 16° 21° (NNE) 20:49:26 145.825
RS-15 17 Apr 20:46:26 20:53:16 17° 353° (N) 21:00:08 29.354- 29.394
DOVE 4 17 Apr 20:58:48 21:02:46 47° 74° (ENE) 21:06:52 437.250
AAUSAT CUBESAT 2 17 Apr 20:59:13 21:02:58 33° 72° (ENE) 21:06:48 437.432
Oscar 11 17 Apr 20:59:48 21:02:28 17° 67° (ENE) 21:05:18 145.826/435.025
CINEMA 3 17 Apr 21:11:42 21:15:26 33° 71° (ENE) 21:19:21 145.822/145.860
GOMX 1 17 Apr 21:17:05 21:21:11 65° 259° (W) 21:25:22 467.674
PCSat 17 Apr 21:18:50 21:23:10 24° 252° (WSW) 21:27:20 145.827
UWE-3 17 Apr 21:20:05 21:22:54 18° 67° (ENE) 21:25:54 435.000/436.395/437.385
Cosmos 2499 17 Apr 21:26:03 21:33:59 34° 290° (WNW) 21:41:42 435.465 / 435.565
VERMONT LUNAR 17 Apr 21:29:41 21:33:05 72° 162° (SSE) 21:36:27 437.305
DELFI C3 17 Apr 21:32:18 21:35:42 26° 71° (ENE) 21:39:11 145.870
COMPASS 1 17 Apr 21:44:06 21:48:18 62° 260° (W) 21:52:31 437.405
HUMSAT D 17 Apr 21:47:08 21:49:07 13° 66° (ENE) 21:51:17 437.325/437.525
CANX-2 17 Apr 21:49:27 21:53:20 32° 264° (W) 21:57:13 2200.000
HO-68 17 Apr 21:50:45 21:57:37 47° 261° (W) 22:04:30 435.675
FUNcube-1 17 Apr 21:52:30 21:56:13 31° 71° (ENE) 22:00:06 145.935
SEEDS 17 Apr 21:55:58 21:59:55 36° 263° (W) 22:03:52 437.485
CUTE 1.7 + AOD 2 17 Apr 22:00:14 22:03:55 27° 265° (W) 22:07:35 437.475
AISAT 17 Apr 22:04:42 22:06:57 14° 66° (ENE) 22:09:24 437.250
PHONESAT 2.4 17 Apr 22:08:55 22:12:27 58° 159° (SSE) 22:15:59 2401.200-2431.200
CUBEBUG 2 17 Apr 22:09:54 22:14:07 80° 78° (ENE) 22:18:31 437.445
UKube-1 17 Apr 22:12:27 22:16:22 35° 71° (ENE) 22:20:19 .
ZACube-1 17 Apr 22:13:44 22:17:52 56° 75° (ENE) 22:22:10 437.345
YUBILEINY 17 Apr 22:15:12 22:22:19 28° 68° (ENE) 22:29:38 435.215
ISS 17 Apr 22:20:52 22:24:08 86° 39° (NE) 22:27:23 145.825
Oscar 11 17 Apr 22:34:13 22:38:21 42° 262° (W) 22:42:30 145.826/435.025
AAUSAT CUBESAT 2 17 Apr 22:35:39 22:38:43 19° 268° (W) 22:41:40 437.432
DOVE 4 17 Apr 22:39:11 22:40:58 12° 271° (W) 22:42:33 437.250
CINEMA 3 17 Apr 22:49:47 22:52:49 19° 268° (W) 22:55:47 145.822/145.860
TIGRISAT 17 Apr 22:52:06 22:55:17 18° 91° (E) 22:58:37 435.000
UNISAT 6 17 Apr 22:52:13 22:55:30 19° 92° (E) 22:58:55 437.425
DX 1 17 Apr 22:52:23 22:56:43 76° 258° (WSW) 23:01:04 434.975-435.025
UWE-3 17 Apr 22:55:14 22:59:10 37° 263° (W) 23:03:13 435.000/436.395/437.385
50 SAT 17 Apr 22:55:15 22:59:04 49° 74° (ENE) 23:02:58 437.505
SO-50 17 Apr 22:55:45 23:00:37 54° 55° (NE) 23:05:26 436.795
RS-15 17 Apr 23:02:28 23:11:18 26° 28° (NNE) 23:20:44 29.354- 29.394
POPSAT HIP 1 17 Apr 23:05:05 23:05:39 10° 89° (E) 23:06:31 437.405
NANOSAT C BR1 17 Apr 23:05:49 23:06:33 11° 89° (E) 23:07:34 145.865
VERMONT LUNAR 17 Apr 23:07:21 23:10:42 61° 358° (N) 23:14:03 437.305
DELFI C3 17 Apr 23:07:36 23:10:51 22° 266° (W) 23:14:02 145.870
O/OREOS (USA 219) 17 Apr 23:16:25 23:18:12 12° 100° (E) 23:20:14 437.305
HUMSAT D 17 Apr 23:20:27 23:24:30 49° 261° (W) 23:28:36 437.325/437.525
VELOX 1 17 Apr 23:24:28 23:28:53 78° 257° (WSW) 23:33:18 145.980
POLYITAN 1 17 Apr 23:28:21 23:31:36 21° 94° (E) 23:34:56 437.675
FUNcube-1 17 Apr 23:29:28 23:32:40 20° 268° (W) 23:35:49 145.935
ANTELSAT 17 Apr 23:32:55 23:37:32 52° 99° (E) 23:42:07 437.575/2403.000
AISAT 17 Apr 23:38:53 23:43:11 51° 261° (W) 23:47:29 437.250
DUCHIFAT 1 17 Apr 23:40:06 23:43:43 27° 95° (E) 23:47:24 145.980
ESTCUBE 1 17 Apr 23:46:54 23:51:27 85° 259° (W) 23:55:59 437.505/2401.250
PHONESAT 2.4 17 Apr 23:47:11 23:50:45 65° 355° (N) 23:54:18 2401.200-2431.200
UKube-1 17 Apr 23:49:31 23:52:38 19° 267° (W) 23:55:38 .
QB50P1 17 Apr 23:51:33 23:55:32 38° 98° (E) 23:59:33 145.935-145.965
ZACube-1 17 Apr 23:53:22 23:54:44 11° 272° (W) 23:55:52 437.345
Cosmos 2491 17 Apr 23:54:43 00:03:11 61° 92° (E) 00:11:47 435.465 / 435.565
CUBEBUG 1 17 Apr 23:55:47 00:00:07 76° 258° (WSW) 00:04:28 437.445
YUBILEINY 18 Apr 00:11:12 00:19:48 61° 268° (W) 00:28:17 435.215
QB50P2 18 Apr 00:14:12 00:18:30 73° 101° (ESE) 00:22:47 145.880/145.840
BUGSAT 1 18 Apr 00:14:13 00:18:12 47° 100° (E) 00:22:12 437.445
SPROUT 18 Apr 00:14:52 00:18:54 43° 73° (ENE) 00:22:58 437.525
TISAT 1 18 Apr 00:17:58 00:21:47 37° 72° (ENE) 00:25:41 437.305
TIGRISAT 18 Apr 00:27:47 00:32:15 42° 287° (WNW) 00:36:40 435.000
UNISAT 6 18 Apr 00:28:02 00:32:29 41° 288° (WNW) 00:36:52 437.425
50 SAT 18 Apr 00:32:58 00:34:18 11° 271° (W) 00:35:23 437.505
SO-50 18 Apr 00:37:25 00:40:47 18° 250° (WSW) 00:43:57 436.795
POPSAT HIP 1 18 Apr 00:37:47 00:42:01 61° 285° (WNW) 00:46:15 437.405
NANOSAT C BR1 18 Apr 00:38:38 00:42:51 60° 285° (WNW) 00:47:04 145.865
Cosmos 2504 18 Apr 00:39:57 00:45:35 20° 63° (ENE) 00:51:18 435.465 / 435.565
VERMONT LUNAR 18 Apr 00:45:00 00:48:22 84° 197° (SSW) 00:51:44 437.305
O/OREOS (USA 219) 18 Apr 00:52:39 00:57:11 58° 294° (WNW) 01:01:43 437.305
POLYITAN 1 18 Apr 01:03:45 01:07:34 31° 289° (WNW) 01:11:20 437.675
ITUPSAT 1 18 Apr 01:04:03 01:07:30 21° 67° (ENE) 01:11:06 437.325
ANTELSAT 18 Apr 01:10:57 01:13:56 16° 294° (WNW) 01:16:43 437.575/2403.000
RS-15 18 Apr 01:14:42 01:26:15 73° 55° (NE) 01:38:20 29.354- 29.394
DUCHIFAT 1 18 Apr 01:16:00 01:19:27 24° 290° (WNW) 01:22:50 145.980
PHONESAT 2.4 18 Apr 01:25:36 01:29:11 84° 13° (NNE) 01:32:44 2401.200-2431.200
QB50P1 18 Apr 01:28:14 01:31:10 18° 292° (WNW) 01:33:58 145.935-145.965
AIST 1 18 Apr 01:32:57 01:36:31 26° 90° (E) 01:40:08
BEESAT 18 Apr 01:39:16 01:43:50 47° 72° (ENE) 01:48:27 436.000
SWISSCUBE 18 Apr 01:40:12 01:44:50 53° 73° (ENE) 01:49:31 437.505
BUGSAT 1 18 Apr 01:51:12 01:53:21 14° 293° (WNW) 01:55:18 437.445
SPROUT 18 Apr 01:52:45 01:55:16 15° 269° (W) 01:57:36 437.525
Cosmos 2491 18 Apr 01:53:27 02:00:44 28° 293° (WNW) 02:07:49 435.465 / 435.565
TISAT 1 18 Apr 01:55:02 01:57:46 16° 268° (W) 02:00:21 437.305
Oscar 19 18 Apr 02:04:04 02:08:41 32° 96° (E) 02:13:19 437.125/150
KKS-1 18 Apr 02:19:00 02:22:18 21° 68° (ENE) 02:25:43 437.445
ITAMSAT 1 18 Apr 02:21:17 02:23:30 13° 89° (E) 02:26:02 435.822/435.867
VERMONT LUNAR 18 Apr 02:23:01 02:25:39 21° 211° (SSW) 02:28:15 437.305
Cosmos 2504 18 Apr 02:31:52 02:40:10 76° 265° (W) 02:47:47 435.465 / 435.565
ITUPSAT 1 18 Apr 02:40:38 02:45:10 40° 262° (W) 02:49:41 437.325
PHONESAT 2.4 18 Apr 03:04:08 03:07:16 29° 208° (SSW) 03:10:22 2401.200-2431.200
AIST 1 18 Apr 03:10:37 03:14:09 23° 286° (WNW) 03:17:35
BEESAT 18 Apr 03:18:49 03:21:59 17° 269° (W) 03:24:59 436.000
SWISSCUBE 18 Apr 03:20:14 03:23:05 15° 270° (W) 03:25:43 437.505
RS-15 18 Apr 03:28:12 03:37:59 31° 254° (WSW) 03:47:38 29.354- 29.394
STARS 18 Apr 03:33:15 03:37:37 89° 77° (ENE) 03:42:02 437.465
Gurwin Techsat 1B 18 Apr 03:37:50 03:43:08 66° 101° (E) 03:48:25 435.225
Oscar 19 18 Apr 03:43:28 03:47:58 29° 292° (WNW) 03:52:22 437.125/150
KKS-1 18 Apr 03:54:46 03:58:46 33° 263° (W) 04:02:46 437.445
ITAMSAT 1 18 Apr 03:58:27 04:03:36 68° 286° (WNW) 04:08:44 435.822/435.867
Cosmos 2504 18 Apr 04:29:20 04:32:10 12° 283° (WNW) 04:34:15 435.465 / 435.565
HORYU 2 18 Apr 04:29:27 04:33:46 44° 99° (E) 04:38:04 437.375
AO-7 18 Apr 04:30:05 04:37:22 34° 96° (E) 04:44:48 29.400- 29.500
BEESAT 2 18 Apr 04:30:53 04:33:42 19° 112° (ESE) 04:36:39 435.950
GONETS M04 18 Apr 04:32:05 04:40:29 46° 75° (ENE) 04:48:56
BEESAT 3 18 Apr 04:39:46 04:43:14 28° 114° (ESE) 04:46:48 437.485
DANDE 18 Apr 04:41:15 04:46:07 22° 70° (ENE) 04:52:01 436.750
JAS-2 18 Apr 04:45:23 04:51:39 40° 95° (E) 04:57:15 435.910
M-CUBED/EXP-1 PRIME 18 Apr 04:51:24 04:53:45 14° 59° (ENE) 04:56:20 437.505
MOZHAYETS 4 18 Apr 04:55:43 05:00:18 64° 75° (ENE) 05:04:55
CUSAT 1 18 Apr 04:56:48 05:03:00 36° 74° (ENE) 05:10:20 437.405
Gurwin Techsat 1B 18 Apr 05:19:27 05:22:38 16° 296° (WNW) 05:25:35 435.225
Cosmos 2499 18 Apr 05:27:44 05:31:54 15° 59° (ENE) 05:36:23 435.465 / 435.565
AUBIESAT-1 18 Apr 05:39:32 05:43:46 36° 66° (ENE) 05:48:11 437.475
HORYU 2 18 Apr 06:07:06 06:10:07 17° 294° (WNW) 06:12:57 437.375
STRAND 1 18 Apr 06:07:27 06:10:31 17° 64° (ENE) 06:13:46 437.568
BEESAT 2 18 Apr 06:07:44 06:11:35 37° 307° (NW) 06:15:28 435.950
CUBESAT XI-V 18 Apr 06:09:02 06:13:00 29° 71° (ENE) 06:17:03 437.345
AIST 2 18 Apr 06:15:43 06:19:58 85° 120° (ESE) 06:24:17 435.215
BEESAT 3 18 Apr 06:17:45 06:21:14 26° 310° (NW) 06:24:43 437.485
AO-7 18 Apr 06:22:28 06:30:27 52° 294° (WNW) 06:38:22 29.400- 29.500
DANDE 18 Apr 06:23:05 06:29:44 72° 263° (W) 06:37:53 436.750
M-CUBED/EXP-1 PRIME 18 Apr 06:23:24 06:28:02 71° 254° (WSW) 06:32:53 437.505
GONETS M04 18 Apr 06:29:16 06:37:12 37° 273° (W) 06:44:54
JAS-2 18 Apr 06:30:38 06:36:34 32° 295° (WNW) 06:41:48 435.910
MOZHAYETS 4 18 Apr 06:36:20 06:38:03 11° 272° (W) 06:39:28
CUSAT 1 18 Apr 06:39:16 06:45:50 45° 266° (W) 06:53:24 437.405
PRISM 18 Apr 07:05:39 07:09:51 84° 76° (ENE) 07:14:03 437.425
AUBIESAT-1 18 Apr 07:14:51 07:18:38 24° 263° (W) 07:22:26 437.475
JUGNU 18 Apr 07:18:26 07:20:06 11° 182° (S) 07:21:45 437.505
Cosmos 2499 18 Apr 07:18:31 07:26:39 87° 83° (E) 07:34:06 435.465 / 435.565
CUTE-I 18 Apr 07:24:48 07:30:05 64° 101° (E) 07:35:21 437.470
Cubesat XI-IV 18 Apr 07:31:49 07:37:08 75° 102° (ESE) 07:42:28 437.490
STRAND 1 18 Apr 07:44:15 07:49:18 58° 259° (W) 07:54:21 437.568
CUBESAT XI-V 18 Apr 07:46:32 07:50:27 26° 266° (W) 07:54:17 437.345
AIST 2 18 Apr 07:57:23 07:59:13 12° 319° (NW) 08:00:55 435.215
DANDE 18 Apr 08:10:12 08:12:39 11° 273° (W) 08:14:33 436.750
AO-7 18 Apr 08:19:49 08:21:32 11° 314° (NW) 08:22:43 29.400- 29.500
BRITE-PL 18 Apr 08:49:05 08:53:21 30° 96° (E) 08:57:57 437.365/2234.400
DOVE 4 18 Apr 08:59:18 09:02:29 17° 91° (E) 09:05:56 437.250
SRMSAT 18 Apr 09:00:02 09:01:56 11° 182° (S) 09:03:49 437.500
CUTE-I 18 Apr 09:06:24 09:09:42 16° 296° (WNW) 09:12:47 437.470
CINEMA 3 18 Apr 09:10:15 09:10:52 10° 87° (E) 09:11:52 145.822/145.860
Cubesat XI-IV 18 Apr 09:13:54 09:16:41 14° 298° (WNW) 09:19:12 437.490
Cosmos 2499 18 Apr 09:14:20 09:18:40 15° 281° (W) 09:22:21 435.465 / 435.565
GOMX 1 18 Apr 09:19:07 09:23:46 40° 98° (E) 09:28:41 467.674
HO-68 18 Apr 09:19:46 09:26:18 37° 97° (E) 09:32:53 435.675
O/OREOS (USA 219) 18 Apr 09:25:32 09:28:52 20° 57° (ENE) 09:32:17 437.305
COMPASS 1 18 Apr 09:29:39 09:32:59 23° 94° (E) 09:36:23 437.405
CANX-2 18 Apr 09:35:46 09:39:55 45° 98° (E) 09:44:02 2200.000
SEEDS 18 Apr 09:41:33 09:45:33 39° 97° (E) 09:49:32 437.485
CUTE 1.7 + AOD 2 18 Apr 09:46:09 09:50:23 55° 99° (E) 09:54:34 437.475
TIGRISAT 18 Apr 09:50:48 09:52:59 14° 65° (ENE) 09:55:24 435.000
UNISAT 6 18 Apr 09:51:04 09:53:24 15° 65° (ENE) 09:55:58 437.425
CUBEBUG 2 18 Apr 10:02:55 10:06:22 20° 92° (E) 10:09:59 437.445
ZACube-1 18 Apr 10:05:20 10:07:27 13° 89° (E) 10:09:49 437.345
Cosmos 2491 18 Apr 10:07:13 10:14:24 28° 68° (ENE) 10:21:51 435.465 / 435.565
PCSat 18 Apr 10:14:57 10:20:10 53° 113° (ESE) 10:25:28 145.827
AAUSAT CUBESAT 2 18 Apr 10:18:39 10:22:52 76° 101° (E) 10:27:02 437.432
POLYITAN 1 18 Apr 10:21:26 10:23:36 14° 66° (ENE) 10:25:57 437.675
Oscar 11 18 Apr 10:22:52 10:26:54 37° 97° (E) 10:30:56 145.826/435.025
BRITE-PL 18 Apr 10:27:41 10:31:49 29° 289° (WNW) 10:36:09 437.365/2234.400
ANTELSAT 18 Apr 10:30:47 10:34:51 38° 71° (ENE) 10:39:05 437.575/2403.000
DUCHIFAT 1 18 Apr 10:32:10 10:34:56 18° 68° (ENE) 10:37:50 145.980
DOVE 4 18 Apr 10:35:44 10:40:30 51° 286° (WNW) 10:45:29 437.250
DX 1 18 Apr 10:42:53 10:46:03 20° 93° (E) 10:49:20 434.975-435.025
QB50P1 18 Apr 10:43:34 10:46:56 24° 70° (ENE) 10:50:24 145.935-145.965
CINEMA 3 18 Apr 10:43:46 10:48:40 79° 283° (WNW) 10:53:41 145.822/145.860
UWE-3 18 Apr 10:45:53 10:50:25 47° 99° (E) 10:54:57 435.000/436.395/437.385
DELFI C3 18 Apr 10:47:33 10:51:31 53° 99° (E) 10:55:28 145.870
GOMX 1 18 Apr 10:57:52 11:01:42 23° 291° (WNW) 11:05:35 467.674
BUGSAT 1 18 Apr 11:03:32 11:06:56 27° 71° (ENE) 11:10:23 437.445
O/OREOS (USA 219) 18 Apr 11:04:18 11:08:27 36° 255° (WSW) 11:12:32 437.305
COMPASS 1 18 Apr 11:05:04 11:08:41 27° 289° (WNW) 11:12:12 437.405
QB50P2 18 Apr 11:05:53 11:09:53 44° 73° (ENE) 11:13:56 145.880/145.840
HUMSAT D 18 Apr 11:06:07 11:09:53 29° 96° (E) 11:13:41 437.325/437.525
HO-68 18 Apr 11:07:26 11:14:04 40° 294° (WNW) 11:20:35 435.675
CANX-2 18 Apr 11:12:57 11:15:30 15° 293° (WNW) 11:17:52 2200.000
YUBILEINY 18 Apr 11:14:37 11:22:04 33° 86° (E) 11:29:45 435.215
VELOX 1 18 Apr 11:17:05 11:20:27 22° 94° (E) 11:23:56 145.980
FUNcube-1 18 Apr 11:17:38 11:22:15 83° 102° (ESE) 11:26:50 145.935
SEEDS 18 Apr 11:18:16 11:21:05 17° 292° (WNW) 11:23:44 437.485
CUTE 1.7 + AOD 2 18 Apr 11:23:51 11:25:52 13° 294° (WNW) 11:27:41 437.475
TIGRISAT 18 Apr 11:24:59 11:29:17 55° 260° (W) 11:33:45 435.000
UNISAT 6 18 Apr 11:25:27 11:29:47 52° 261° (W) 11:34:13 437.425
POPSAT HIP 1 18 Apr 11:29:04 11:33:16 83° 75° (ENE) 11:37:29 437.405
NANOSAT C BR1 18 Apr 11:29:41 11:33:52 84° 78° (ENE) 11:38:06 145.865
AISAT 18 Apr 11:31:07 11:35:05 32° 97° (E) 11:39:06 437.250
UKube-1 18 Apr 11:36:50 11:41:11 79° 102° (ESE) 11:45:31 .
CUBEBUG 2 18 Apr 11:38:48 11:43:12 39° 288° (WNW) 11:47:37 437.445
ZACube-1 18 Apr 11:39:42 11:44:13 56° 286° (WNW) 11:48:43 437.345
ESTCUBE 1 18 Apr 11:41:46 11:45:12 22° 93° (E) 11:48:44 437.505/2401.250
CUBEBUG 1 18 Apr 11:46:42 11:50:00 21° 94° (E) 11:53:24 437.445
POLYITAN 1 18 Apr 11:55:07 11:59:10 46° 261° (W) 12:03:16 437.675
PCSat 18 Apr 11:59:40 12:03:58 23° 312° (NW) 12:08:09 145.827
Oscar 11 18 Apr 11:59:45 12:02:50 19° 292° (WNW) 12:05:48 145.826/435.025
Cosmos 2491 18 Apr 12:03:16 12:11:56 61° 268° (W) 12:20:31 435.465 / 435.565
DUCHIFAT 1 18 Apr 12:06:40 12:10:32 35° 263° (W) 12:14:24 145.980
50 SAT 18 Apr 12:08:27 12:12:32 83° 283° (WNW) 12:16:35 437.505
ANTELSAT 18 Apr 12:08:41 12:11:50 18° 268° (W) 12:14:55 437.575/2403.000
DX 1 18 Apr 12:18:29 12:22:24 33° 289° (WNW) 12:26:16 434.975-435.025
QB50P1 18 Apr 12:19:13 12:22:45 25° 265° (W) 12:26:14 145.935-145.965
UWE-3 18 Apr 12:23:30 12:26:36 17° 293° (WNW) 12:29:34 435.000/436.395/437.385
DELFI C3 18 Apr 12:24:42 12:26:15 12° 294° (WNW) 12:27:36 145.870
BUGSAT 1 18 Apr 12:39:20 12:42:26 21° 266° (W) 12:45:27 437.445
HUMSAT D 18 Apr 12:42:02 12:45:32 23° 291° (WNW) 12:48:55 437.325/437.525
QB50P2 18 Apr 12:43:49 12:46:05 14° 269° (W) 12:48:10 145.880/145.840
BEESAT 2 18 Apr 12:52:31 12:53:18 11° 40° (NE) 12:54:17 435.950
VELOX 1 18 Apr 12:53:09 12:57:05 31° 289° (WNW) 13:00:58 145.980
BEESAT 3 18 Apr 13:00:29 13:02:42 14° 43° (NE) 13:05:02 437.485
AISAT 18 Apr 13:08:04 13:11:32 22° 291° (WNW) 13:14:53 437.250
SO-50 18 Apr 13:09:52 13:13:24 23° 112° (ESE) 13:17:10 436.795
YUBILEINY 18 Apr 13:10:04 13:18:37 51° 284° (WNW) 13:27:09 435.215
Cosmos 2504 18 Apr 13:17:19 13:22:31 18° 80° (E) 13:28:16 435.465 / 435.565
AIST 1 18 Apr 13:18:05 13:22:21 73° 82° (E) 13:26:35
ESTCUBE 1 18 Apr 13:18:09 13:22:09 32° 289° (WNW) 13:26:05 437.505/2401.250
Oscar 19 18 Apr 13:19:35 13:24:20 40° 71° (ENE) 13:29:10 437.125/150
Gurwin Techsat 1B 18 Apr 13:22:04 13:23:35 11° 61° (ENE) 13:25:25 435.225
CUBEBUG 1 18 Apr 13:22:35 13:26:26 31° 289° (WNW) 13:30:13 437.445
ITAMSAT 1 18 Apr 13:37:37 13:41:08 19° 65° (ENE) 13:44:50 435.822/435.867
SPROUT 18 Apr 13:38:30 13:42:50 78° 284° (WNW) 13:47:09 437.525
TISAT 1 18 Apr 13:39:03 13:43:19 85° 105° (ESE) 13:47:33 437.305
BEESAT 18 Apr 13:42:41 13:44:48 13° 89° (E) 13:47:11 436.000
SWISSCUBE 18 Apr 13:43:24 13:45:58 15° 90° (E) 13:48:46 437.505
BEESAT 2 18 Apr 14:28:01 14:32:10 87° 59° (ENE) 14:36:13 435.950
BEESAT 3 18 Apr 14:37:07 14:41:10 61° 242° (WSW) 14:45:08 437.485
AIST 2 18 Apr 14:39:00 14:42:56 36° 52° (NE) 14:46:50 435.215
ITUPSAT 1 18 Apr 14:42:17 14:47:00 57° 101° (E) 14:51:40 437.325
SO-50 18 Apr 14:49:21 14:53:44 39° 308° (NW) 14:58:15 436.795
JAS-2 18 Apr 14:55:46 15:01:02 21° 61° (ENE) 15:06:37 435.910
Gurwin Techsat 1B 18 Apr 14:57:35 15:02:53 90° 147° (SSE) 15:08:15 435.225
ISS 18 Apr 14:58:29 15:01:40 53° 137° (SE) 15:04:52 145.825
Oscar 19 18 Apr 14:59:50 15:03:53 22° 267° (W) 15:07:48 437.125/150
Cosmos 2504 18 Apr 15:06:08 15:14:56 87° 275° (W) 15:23:53 435.465 / 435.565
ITAMSAT 1 18 Apr 15:15:15 15:20:18 51° 260° (W) 15:25:21 435.822/435.867
BEESAT 18 Apr 15:18:25 15:23:07 59° 286° (WNW) 15:27:47 436.000
SWISSCUBE 18 Apr 15:19:35 15:24:13 52° 287° (WNW) 15:28:49 437.505
STARS 18 Apr 15:25:22 15:28:22 18° 92° (E) 15:31:31 437.465
HORYU 2 18 Apr 15:26:34 15:30:35 35° 71° (ENE) 15:34:42 437.375
AO-7 18 Apr 15:27:39 15:35:11 42° 64° (ENE) 15:42:52 29.400- 29.500
RS-15 18 Apr 15:36:47 15:47:04 53° 112° (ESE) 15:57:38 29.354- 29.394
KKS-1 18 Apr 15:46:40 15:51:03 51° 100° (E) 15:55:25 437.445
AIST 2 18 Apr 16:18:12 16:21:19 20° 248° (WSW) 16:24:16 435.215
ITUPSAT 1 18 Apr 16:21:41 16:24:28 15° 295° (WNW) 16:27:03 437.325
ISS 18 Apr 16:35:41 16:38:15 21° 335° (NNW) 16:40:47 145.825
JAS-2 18 Apr 16:37:28 16:45:14 85° 255° (WSW) 16:53:09 435.910
MOZHAYETS 4 18 Apr 16:53:29 16:56:22 17° 91° (E) 16:59:25
STARS 18 Apr 17:00:52 17:05:01 38° 288° (WNW) 17:09:06 437.465
Cosmos 2504 18 Apr 17:03:54 17:09:49 18° 299° (WNW) 17:15:16 435.465 / 435.565
HORYU 2 18 Apr 17:04:00 17:07:22 20° 267° (W) 17:10:38 437.375
CUTE-I 18 Apr 17:09:41 17:11:17 12° 61° (ENE) 17:13:11 437.470
Cubesat XI-IV 18 Apr 17:15:55 17:18:22 14° 62° (ENE) 17:21:06 437.490
AO-7 18 Apr 17:20:13 17:28:00 42° 261° (W) 17:35:43 29.400- 29.500
KKS-1 18 Apr 17:24:42 17:27:19 15° 294° (WNW) 17:29:45 437.445
GONETS M04 18 Apr 17:31:05 17:39:28 56° 91° (E) 17:48:01
RS-15 18 Apr 17:49:19 17:59:41 46° 315° (NW) 18:10:13 29.354- 29.394
Cosmos 2499 18 Apr 18:04:25 18:07:53 14° 78° (ENE) 18:12:03 435.465 / 435.565
CUSAT 1 18 Apr 18:07:10 18:09:16 18° 88° (E) 18:11:46 437.405
JAS-2 18 Apr 18:26:49 18:31:25 16° 275° (W) 18:35:31 435.910
MOZHAYETS 4 18 Apr 18:29:29 18:33:52 43° 287° (WNW) 18:38:11
CUTE-I 18 Apr 18:45:21 18:50:41 90° 240° (WSW) 18:56:04 437.470
PRISM 18 Apr 18:51:30 18:53:08 12° 90° (E) 18:55:00 437.425
Cubesat XI-IV 18 Apr 18:52:34 18:57:54 77° 256° (WSW) 19:03:16 437.490
AUBIESAT-1 18 Apr 18:57:16 19:01:09 31° 100° (E) 19:04:47 437.475
VERMONT LUNAR 18 Apr 19:04:02 19:05:21 12° 145° (SE) 19:06:46 437.305
PCSat 18 Apr 19:04:17 19:09:09 33° 53° (NE) 19:14:02 145.827
GONETS M04 18 Apr 19:29:13 19:36:49 31° 291° (WNW) 19:44:17
DANDE 18 Apr 19:37:39 19:40:08 27° 288° (WNW) 19:43:03 436.750
M-CUBED/EXP-1 PRIME 18 Apr 19:41:51 19:46:18 67° 290° (WNW) 19:50:22 437.505
